Location: Lesignano de� Bagni
(44.6500°N, 10.3000°E)
Time: 15:15:38
(UTC+00:00)

Cosmos 2219 Rocket - Pass Details

Date: 03 March 2021
Orbit: 826 x 848 km, 71.0° (Epoch: 18 April)

Event Time Altitude Azimuth Distance (km) Brightness Sun altitude
Rises 17:41:27 0° 147° (SSE) 3,353 5.0 -6.5°
Reaches altitude 10° 17:45:27 10° 119° (ESE) 2,429 4.1 -7.2°
Maximum altitude 17:47:35 12° 96° (E) 2,274 3.8 -7.6°
Drops below altitude 10° 17:49:44 10° 73° (ENE) 2,440 4.0 -8.0°
Enters shadow 17:53:08 - 48° (NE) 3,206 4.8 -8.6°
